Location: Monrovia
(34.7865°N, 86.7139°W)
Time: 22:05:56
(UTC+00:00)

BREEZE-M DEB (TANK) - Pass Details

Date: 14 July 2020
Orbit: 309 x 15750 km, 49.4° (Epoch: 07 August)

Event Time Altitude Azimuth Distance (km) Brightness Sun altitude
Rises 03:22:31 0° 307° (NW) 5,422 8.7 -23.3°
Reaches altitude 10° 03:27:48 10° 314° (NW) 2,983 7.1 -23.9°
Maximum altitude 03:33:00 35° 21° (NNE) 849 3.5 -24.6°
Enters shadow 03:33:07 35° 27° (NNE) 836 3.4 -24.6°
